[[{"header":{"parameterUnit":"m.s-1","parameterCategory":1,"la1":30.2992,"la2":30.254,"lo1":-89.0895,"lo2":-89.0443,"dy":0.0025,"dx":0.0025,"nx":19,"ny":19,"refTime":"2026-05-09T21:00:00:Z","depth":0,"parameterNumber":2,"parameterNumberName":"U-component_of_WINDS"},"data":[0,0,0,-3.0298,-3.0299,-3.036,-3.036,-3.0452,-3.0453,0,0,0,0,0,0,0,0,0,0,0,-3.029,-3.0291,-3.0298,-3.0299,-3.036,-3.036,-3.0452,-3.0453,0,0,0,0,0,0,0,0,0,0,0,-3.029,-3.0291,-3.0292,-3.03,-3.036,-3.036,-3.0452,-3.0401,0,0,0,0,0,0,0,0,0,0,-3.0339,-3.0343,-3.0291,-3.0292,-3.03,-3.036,-3.036,-3.0398,-3.0404,-3.0432,0,-3.0461,0,-3.0459,-3.0461,-3.0461,0,0,0,-3.0291,-3.0338,-3.0345,-3.0292,-3.0301,-3.036,-3.033,-3.0401,-3.0408,-3.044,-3.0462,-3.0465,-3.046,-3.0461,-3.0462,-3.065,-3.0652,0,0,-3.0288,-3.0307,-3.034,-3.035,-3.0343,-3.0328,-3.0332,-3.0405,-3.043,-3.0462,-3.0467,-3.0462,-3.0462,-3.0463,-3.0649,-3.0651,0,0,0,-3.0284,-3.0305,-3.0309,-3.0347,-3.0356,-3.033,-3.0335,-3.0426,-3.0426,-3.0467,-3.0463,-3.0463,-3.0464,-3.0648,-3.065,-3.0729,0,0,0,-3.0281,-3.0302,-3.0308,-3.032,-3.0355,-3.0392,-3.0355,-3.0421,-3.0429,-3.0462,-3.0463,-3.0465,-3.0646,-3.0649,-3.0723,-3.0763,0,0,0,-3.0283,-3.0302,-3.0314,-3.0321,-3.0348,-3.0391,-3.0395,-3.0423,-3.0427,-3.0461,-3.0465,-3.0645,-3.0648,-3.0719,-3.0755,-3.0816,0,0,0,-3.0289,-3.0385,-3.0316,-3.0421,-3.0348,-3.044,-3.0394,-3.0462,-3.0501,-3.0463,-3.0647,-3.065,-3.0717,-3.075,-3.0811,-3.087,-3.0897,0,0,-3.042,-3.0401,-3.0461,-3.0401,-3.0511,-3.0429,-3.0549,-3.0568,-3.0554,-3.0619,-3.0623,-3.0725,-3.0754,-3.0815,-3.1042,-3.1063,0,0,0,-3.0509,-3.0552,-3.0577,-3.0615,-3.0631,-3.0648,-3.0646,-3.0652,-3.0706,-3.0591,-3.0764,-3.0781,-3.0816,-3.0843,-3.0861,-3.0888,-3.0663,-3.0663,-3.0663,-3.0721,-3.0698,-3.0794,-3.0778,-3.0816,-3.0812,-3.0839,-3.0847,-3.0814,-3.0855,-3.0873,-3.1014,-3.1046,-3.106,-3.1089,-3.0904,-3.0904,-3.0904,-3.0904,-3.0909,-3.0966,-3.0918,-3.0994,-3.0969,-3.1032,-3.1032,-3.1006,-3.106,-3.0998,-3.1028,-3.0961,-3.1084,-3.1108,-3.091,-3.0909,-3.0908,-3.0908,-3.0907,-3.1044,-3.1067,-3.1073,-3.1124,-3.1166,-3.1145,-3.12,-3.1175,-3.1152,-3.1181,-3.1197,-3.1195,-3.1189,-3.1191,-3.1191,-3.1192,-3.1192,-3.1192,-3.1193,-3.1182,-3.1186,-3.1235,-3.1258,-3.1278,-3.1301,-3.1297,-3.1315,-3.1329,-3.1307,-3.1307,-3.1268,-3.1101,-3.1058,-3.12,-3.1199,-3.1198,-3.1197,-3.1197,-3.1379,-3.133,-3.1406,-3.1426,-3.145,-3.1492,-3.1459,-3.1498,-3.151,-3.1537,-3.1492,-3.1373,-3.1352,-3.1337,-3.1302,-3.1498,-3.1498,-3.1498,-3.1498,-3.1492,-3.1479,-3.1549,-3.1582,-3.1611,-3.1589,-3.1673,-3.167,-3.1659,-3.1664,-3.1632,-3.1584,-3.157,-3.1557,-3.1537,-3.1504,-3.1747,-3.1747,-3.1748,-3.1611,-3.1599,-3.1676,-3.1665,-3.1681,-3.1696,-3.1773,-3.1812,-3.179,-3.1757,-3.1667,-3.1657,-3.1578,-3.1554,-3.1519,-3.1489,-3.1427,0,0]},{"header":{"parameterUnit":"m.s-1","parameterCategory":1,"la1":30.2992,"la2":30.254,"lo1":-89.0895,"lo2":-89.0443,"dy":0.0025,"dx":0.0025,"nx":19,"ny":19,"refTime":"2026-05-09T21:00:00:Z","depth":0,"parameterNumber":3,"parameterNumberName":"V-component_of_WINDS"},"data":[0,0,0,-0.2165,-0.2162,-0.2032,-0.2031,-0.1876,-0.1875,0,0,0,0,0,0,0,0,0,0,0,-0.2213,-0.2212,-0.2165,-0.2162,-0.2032,-0.2031,-0.1877,-0.1875,0,0,0,0,0,0,0,0,0,0,0,-0.2213,-0.2212,-0.2211,-0.2162,-0.2032,-0.2031,-0.1877,-0.1971,0,0,0,0,0,0,0,0,0,0,-0.2095,-0.2149,-0.2212,-0.2211,-0.2161,-0.2032,-0.2031,-0.1975,-0.1965,-0.1941,0,-0.1925,0,-0.1898,-0.1866,-0.1865,0,0,0,-0.2154,-0.2157,-0.2114,-0.2211,-0.216,-0.2033,-0.2089,-0.1969,-0.1958,-0.1928,-0.1922,-0.1916,-0.1895,-0.1865,-0.1864,-0.1757,-0.1757,0,0,-0.2162,-0.2194,-0.2122,-0.2107,-0.213,-0.2093,-0.2085,-0.1962,-0.1957,-0.1922,-0.1912,-0.1893,-0.1864,-0.1863,-0.1758,-0.1757,0,0,0,-0.2187,-0.2199,-0.2158,-0.2114,-0.209,-0.2089,-0.208,-0.1963,-0.1947,-0.191,-0.1891,-0.1863,-0.1861,-0.1758,-0.1757,-0.1782,0,0,0,-0.2191,-0.2214,-0.2162,-0.218,-0.2092,-0.2025,-0.2084,-0.1955,-0.194,-0.1892,-0.1863,-0.186,-0.1758,-0.1758,-0.1781,-0.1788,0,0,0,-0.2218,-0.2217,-0.2202,-0.2182,-0.2128,-0.2026,-0.2003,-0.1951,-0.1929,-0.1865,-0.186,-0.1758,-0.1758,-0.1781,-0.1787,-0.1768,0,0,0,-0.2255,-0.2225,-0.2203,-0.2161,-0.2129,-0.2043,-0.2004,-0.1937,-0.1886,-0.1862,-0.1758,-0.1757,-0.1781,-0.1787,-0.1768,-0.1758,-0.1758,0,0,-0.2235,-0.2224,-0.2196,-0.2173,-0.2099,-0.206,-0.1989,-0.1911,-0.1874,-0.1798,-0.1795,-0.1782,-0.1787,-0.1768,-0.1743,-0.1742,0,0,0,-0.2201,-0.2182,-0.2155,-0.2108,-0.2049,-0.1997,-0.1927,-0.1897,-0.1831,-0.1842,-0.1769,-0.1771,-0.1759,-0.1753,-0.1752,-0.1739,-0.1756,-0.1756,-0.1756,-0.2218,-0.2174,-0.2126,-0.2066,-0.2021,-0.1948,-0.1906,-0.1854,-0.1822,-0.1805,-0.1782,-0.1772,-0.1766,-0.1766,-0.1752,-0.1774,-0.1774,-0.1774,-0.1774,-0.2184,-0.215,-0.2108,-0.2046,-0.1999,-0.1946,-0.1873,-0.1852,-0.1794,-0.1786,-0.1773,-0.1768,-0.1767,-0.1753,-0.1775,-0.1775,-0.1775,-0.1775,-0.1775,-0.219,-0.2166,-0.2132,-0.2059,-0.2007,-0.1946,-0.1892,-0.185,-0.1811,-0.1798,-0.1768,-0.1768,-0.1761,-0.1787,-0.1787,-0.1787,-0.1787,-0.1787,-0.1787,-0.2211,-0.2171,-0.2132,-0.2065,-0.2029,-0.1976,-0.1901,-0.1863,-0.181,-0.1784,-0.1783,-0.1752,-0.1775,-0.1782,-0.1786,-0.1786,-0.1786,-0.1786,-0.1786,-0.2192,-0.2189,-0.2129,-0.2093,-0.201,-0.196,-0.1908,-0.1834,-0.1797,-0.1771,-0.1742,-0.1766,-0.1751,-0.1751,-0.1756,-0.1753,-0.1753,-0.1753,-0.1753,-0.2197,-0.2186,-0.2114,-0.2058,-0.1999,-0.1945,-0.1875,-0.1816,-0.1754,-0.1727,-0.1721,-0.1724,-0.1726,-0.171,-0.1711,-0.1714,-0.1701,-0.1701,-0.1701,-0.2183,-0.2163,-0.2114,-0.2055,-0.1986,-0.1927,-0.186,-0.1796,-0.1724,-0.1698,-0.1705,-0.1707,-0.1712,-0.1716,-0.169,-0.1692,-0.1698,0,0]}]]